K7SKM Weather Reports


Display with metric or nautical units.
time (UTC)temp
F
wind
direction
speed
MPH
gust
MPH
rain 1hr
in
rain 24hr
in
rain mn
in
humidity
%
barometer
mb
20260505130223 56 156 0.0 3.0 0.00 0.00 0.00 76 1019.2
20260505124713 56 162 0.0 0.0 0.00 0.00 0.00 76 1019.1
20260505124210 56 152 0.0 0.0 0.00 0.00 0.00 76 1019.1
20260505123705 56 157 0.0 0.0 0.00 0.00 0.00 76 1019.1
20260505123203 56 233 0.0 0.0 0.00 0.00 0.00 76 1019.1
20260505122659 56 160 0.0 3.0 0.00 0.00 0.00 76 1019.0
20260505122156 56 208 0.0 0.0 0.00 0.00 0.00 76 1018.9
20260505121653 56 206 0.0 5.0 0.00 0.00 0.00 76 1019.1
20260505121149 56 194 0.0 5.0 0.00 0.00 0.00 76 1019.0
20260505120645 56 189 0.0 0.0 0.00 0.00 0.00 76 1018.8
20260505120142 56 208 0.0 0.0 0.00 0.00 0.00 76 1019.0
20260505115635 56 194 0.0 0.0 0.00 0.00 0.00 76 1018.7
20260505115134 56 202 0.0 3.0 0.00 0.00 0.00 77 1018.6
20260505114630 56 266 0.0 0.0 0.00 0.00 0.00 77 1018.8
20260505114127 56 127 0.0 3.0 0.00 0.00 0.00 77 1018.8
20260505113623 56 199 0.0 0.0 0.00 0.00 0.00 77 1018.7
20260505113120 56 190 0.0 0.0 0.00 0.00 0.00 77 1018.8
20260505112616 56 160 2.0 5.0 0.00 0.00 0.00 77 1018.7
20260505112114 56 140 0.0 3.0 0.00 0.00 0.00 77 1018.7
20260505111608 56 148 0.0 0.0 0.00 0.00 0.00 77 1018.6
20260505111104 56 193 0.0 0.0 0.00 0.00 0.00 77 1018.6
20260505110601 56 138 0.0 0.0 0.00 0.00 0.00 77 1018.7
20260505102033 56 208 0.0 0.0 0.00 0.00 0.00 77 1018.6
20260505101532 56 197 0.0 3.0 0.00 0.00 0.00 77 1018.4
20260505101028 56 156 0.0 5.0 0.00 0.00 0.00 77 1018.4
20260505100525 56 149 0.0 3.0 0.00 0.00 0.00 78 1018.3
20260505100022 56 214 0.0 0.0 0.00 0.00 0.00 77 1018.1
20260505095517 56 135 2.0 5.0 0.00 0.00 0.00 77 1018.2
20260505095014 55 198 0.0 0.0 0.00 0.00 0.00 78 1018.1
20260505094511 55 204 0.0 0.0 0.00 0.00 0.00 78 1018.2
20260505094007 55 206 0.0 0.0 0.00 0.00 0.00 79 1018.1
20260505093503 55 194 0.0 0.0 0.00 0.00 0.00 79 1018.3
20260505093001 55 144 0.0 0.0 0.00 0.00 0.00 79 1018.0
20260505092458 55 143 0.0 0.0 0.00 0.00 0.00 79 1018.1
20260505091956 55 215 0.0 0.0 0.00 0.00 0.00 79 1018.1
20260505091453 55 213 0.0 0.0 0.00 0.00 0.00 79 1018.2
20260505090951 55 224 0.0 0.0 0.00 0.00 0.00 79 1017.9
20260505090449 55 145 0.0 0.0 0.00 0.00 0.00 80 1017.9
20260505085946 55 194 0.0 0.0 0.00 0.00 0.00 79 1018.0
20260505085444 55 208 0.0 0.0 0.00 0.00 0.00 80 1017.7
20260505084942 55 184 0.0 0.0 0.00 0.00 0.00 79 1017.8
20260505084440 55 198 0.0 0.0 0.00 0.00 0.00 79 1017.9
20260505083937 55 210 0.0 0.0 0.00 0.00 0.00 79 1017.8
20260505083435 55 209 0.0 0.0 0.00 0.00 0.00 79 1018.0
20260505082931 55 189 0.0 0.0 0.00 0.00 0.00 79 1017.8
20260505082427 55 201 0.0 0.0 0.00 0.00 0.00 79 1017.8
20260505081924 55 205 0.0 0.0 0.00 0.00 0.00 79 1017.9
20260505081421 55 200 0.0 0.0 0.00 0.00 0.00 79 1017.8
20260505080917 55 131 0.0 0.0 0.00 0.00 0.00 79 1017.6
20260505080413 55 195 0.0 0.0 0.00 0.00 0.00 79 1017.8
20260505075909 55 167 0.0 0.0 0.00 0.00 0.00 78 1017.8
20260505075406 55 169 0.0 0.0 0.00 0.00 0.00 79 1017.8
20260505074903 55 202 0.0 0.0 0.00 0.00 0.00 78 1017.6
20260505074400 55 196 0.0 0.0 0.00 0.00 0.00 78 1017.6
20260505073857 55 209 0.0 0.0 0.00 0.00 0.00 78 1017.5
20260505073355 56 210 0.0 0.0 0.00 0.00 0.00 77 1017.4
20260505072852 56 150 0.0 0.0 0.00 0.00 0.00 77 1017.5
20260505072348 56 163 0.0 0.0 0.00 0.00 0.00 77 1017.3
20260505071845 56 141 0.0 0.0 0.00 0.00 0.00 77 1017.3
20260505071341 56 207 0.0 0.0 0.00 0.00 0.00 77 1017.4
20260505070839 56 193 0.0 0.0 0.00 0.00 0.00 76 1017.2
20260505070335 57 237 0.0 5.0 0.00 0.00 0.00 76 1017.2
20260505065831 57 223 0.0 0.0 0.00 0.00 0.00 76 1017.1
20260505065327 57 224 0.0 0.0 0.00 0.00 0.00 76 1017.0
20260505064825 57 221 0.0 5.0 0.00 0.00 0.00 76 1017.0
20260505064321 57 182 0.0 0.0 0.00 0.00 0.00 76 1017.0
20260505063820 57 212 0.0 0.0 0.00 0.00 0.00 76 1016.9
20260505063315 57 223 0.0 0.0 0.00 0.00 0.00 76 1017.0
20260505062812 57 193 0.0 0.0 0.00 0.00 0.00 75 1016.9
20260505062310 57 229 0.0 0.0 0.00 0.00 0.00 74 1016.8
20260505061806 57 232 0.0 0.0 0.00 0.00 0.00 75 1016.9
20260505061305 57 228 0.0 0.0 0.00 0.00 0.00 74 1016.8
20260505060802 58 191 0.0 0.0 0.00 0.00 0.00 74 1016.7
20260505060259 58 219 0.0 3.0 0.00 0.00 0.00 74 1016.7
20260505055754 58 198 0.0 0.0 0.00 0.00 0.00 73 1016.4
20260505055250 58 157 0.0 0.0 0.00 0.00 0.00 73 1016.4
20260505054748 58 197 0.0 0.0 0.00 0.00 0.00 73 1016.2
20260505054245 58 196 0.0 0.0 0.00 0.00 0.00 72 1016.4
20260505053744 59 132 0.0 0.0 0.00 0.00 0.00 72 1016.2
20260505053240 59 205 0.0 0.0 0.00 0.00 0.00 72 1016.4
20260505052737 59 185 0.0 0.0 0.00 0.00 0.00 71 1016.2
20260505052234 60 188 0.0 0.0 0.00 0.00 0.00 70 1016.3
20260505051731 60 148 0.0 0.0 0.00 0.00 0.00 70 1016.1
20260505051229 60 195 0.0 0.0 0.00 0.00 0.00 69 1016.2
20260505050727 60 212 0.0 0.0 0.00 0.00 0.00 69 1016.0
20260505050225 61 210 0.0 0.0 0.00 0.00 0.00 69 1016.0
20260505041654 63 283 0.0 0.0 0.00 0.00 0.00 64 1015.4
20260505041152 63 318 0.0 3.0 0.00 0.00 0.00 64 1015.3
20260505040649 64 236 0.0 5.0 0.00 0.00 0.00 63 1015.4
20260505040146 64 221 0.0 0.0 0.00 0.00 0.00 63 1015.3
20260505035642 64 217 0.0 0.0 0.00 0.00 0.00 62 1015.1
20260505035138 65 237 0.0 3.0 0.00 0.00 0.00 61 1015.1
20260505034635 65 210 0.0 0.0 0.00 0.00 0.00 61 1015.0
20260505034132 66 212 0.0 0.0 0.00 0.00 0.00 60 1014.8
20260505033628 66 149 0.0 3.0 0.00 0.00 0.00 60 1014.9
20260505033127 66 162 0.0 0.0 0.00 0.00 0.00 59 1014.8
20260505032625 67 290 0.0 0.0 0.00 0.00 0.00 59 1014.8
20260505032121 67 265 0.0 5.0 0.00 0.00 0.00 58 1014.6
20260505031618 68 233 0.0 0.0 0.00 0.00 0.00 57 1014.6
20260505031114 68 307 0.0 3.0 0.00 0.00 0.00 57 1014.5
20260505030612 68 215 0.0 5.0 0.00 0.00 0.00 56 1014.4
20260505030107 69 198 0.0 0.0 0.00 0.00 0.00 55 1014.2
20260505025603 70 200 0.0 3.0 0.00 0.00 0.00 54 1014.4
20260505025102 70 203 0.0 0.0 0.00 0.00 0.00 53 1014.2
20260505024559 71 254 0.0 0.0 0.00 0.00 0.00 53 1014.1
20260505024056 71 198 0.0 0.0 0.00 0.00 0.00 52 1014.3
20260505023554 71 222 0.0 0.0 0.00 0.00 0.00 51 1014.2
20260505023051 72 307 2.0 7.0 0.00 0.00 0.00 50 1014.0
20260505022548 73 279 0.0 0.0 0.00 0.00 0.00 50 1014.0
20260505022045 73 230 0.0 3.0 0.00 0.00 0.00 49 1013.9
20260505021542 75 244 0.0 0.0 0.00 0.00 0.00 49 1013.9
20260505021039 75 233 0.0 0.0 0.00 0.00 0.00 48 1013.7
20260505020538 75 293 0.0 3.0 0.00 0.00 0.00 48 1013.8
20260505020036 75 270 0.0 7.0 0.00 0.00 0.00 48 1013.8
20260505015533 76 270 0.0 0.0 0.00 0.00 0.00 48 1013.6
20260505015030 76 235 0.0 3.0 0.00 0.00 0.00 47 1013.7
20260505014526 77 205 0.0 0.0 0.00 0.00 0.00 47 1013.8
20260505014024 77 252 0.0 0.0 0.00 0.00 0.00 46 1013.7
20260505013521 77 235 0.0 3.0 0.00 0.00 0.00 45 1013.7
20260505013018 77 227 0.0 0.0 0.00 0.00 0.00 44 1013.8
20260505012516 78 212 0.0 0.0 0.00 0.00 0.00 43 1013.7
20260505012013 78 248 0.0 0.0 0.00 0.00 0.00 43 1013.8
20260505011508 79 206 0.0 0.0 0.00 0.00 0.00 43 1013.7
20260505011006 78 305 0.0 5.0 0.00 0.00 0.00 43 1013.8
20260505010501 81 227 0.0 3.0 0.00 0.00 0.00 40 1013.8
20260505005957 81 222 0.0 0.0 0.00 0.00 0.00 39 1013.8
20260505005454 82 264 0.0 0.0 0.00 0.00 0.00 40 1013.8
20260505004952 82 306 0.0 3.0 0.00 0.00 0.00 39 1014.1
20260505004449 82 241 0.0 3.0 0.00 0.00 0.00 38 1013.9
20260505003945 81 269 0.0 5.0 0.00 0.00 0.00 38 1013.8
20260505003443 83 282 0.0 5.0 0.00 0.00 0.00 37 1013.9
20260505002938 83 236 0.0 0.0 0.00 0.00 0.00 38 1013.6
20260505002435 82 222 0.0 0.0 0.00 0.00 0.00 39 1013.9
20260505001934 82 292 2.0 5.0 0.00 0.00 0.00 37 1013.8
20260505001431 82 244 0.0 3.0 0.00 0.00 0.00 38 1013.8
20260505000927 84 265 3.0 5.0 0.00 0.00 0.00 35 1013.9
20260505000428 85 211 0.0 0.0 0.00 0.00 0.00 34 1013.7
20260504235922 83 199 0.0 0.0 0.00 0.00 0.00 35 1013.8
20260504235420 81 215 0.0 5.0 0.00 0.00 0.00 36 1013.7
20260504234915 82 264 0.0 0.0 0.00 0.00 0.00 37 1013.7
20260504234413 81 229 0.0 0.0 0.00 0.00 0.00 35 1013.8
20260504233910 83 210 0.0 0.0 0.00 0.00 0.00 33 1013.7
20260504233405 83 255 0.0 5.0 0.00 0.00 0.00 32 1013.6
20260504232902 83 310 0.0 3.0 0.00 0.00 0.00 34 1013.7
20260504232359 82 230 0.0 3.0 0.00 0.00 0.00 40 1013.6
20260504231856 84 275 0.0 3.0 0.00 0.00 0.00 37 1013.5
20260504231353 84 232 0.0 0.0 0.00 0.00 0.00 37 1013.9
20260504230849 84 274 0.0 3.0 0.00 0.00 0.00 37 1013.9
20260504230346 84 214 0.0 0.0 0.00 0.00 0.00 37 1014.0
20260504225845 82 235 0.0 0.0 0.00 0.00 0.00 38 1014.0
20260504225341 81 187 0.0 5.0 0.00 0.00 0.00 40 1014.2
20260504224839 81 264 1.0 7.0 0.00 0.00 0.00 39 1014.3
20260504224335 83 224 0.0 0.0 0.00 0.00 0.00 36 1014.4
20260504223832 82 277 0.0 0.0 0.00 0.00 0.00 38 1014.4
20260504223328 82 271 5.0 7.0 0.00 0.00 0.00 37 1014.2
20260504222824 81 265 0.0 5.0 0.00 0.00 0.00 38 1014.2
20260504222321 80 306 1.0 7.0 0.00 0.00 0.00 40 1014.7
20260504221820 83 289 1.0 7.0 0.00 0.00 0.00 40 1014.5
20260504221316 82 286 0.0 7.0 0.00 0.00 0.00 40 1014.5
20260504220813 81 274 0.0 7.0 0.00 0.00 0.00 41 1014.4
20260504220310 80 262 3.0 7.0 0.00 0.00 0.00 40 1014.4
20260504215808 79 292 0.0 7.0 0.00 0.00 0.00 41 1014.6
20260504215304 81 279 7.0 10.0 0.00 0.00 0.00 39 1014.7
20260504214800 82 280 7.0 10.0 0.00 0.00 0.00 38 1014.7
20260504214256 82 128 0.0 0.0 0.00 0.00 0.00 40 1014.8
20260504213753 80 196 0.0 10.0 0.00 0.00 0.00 41 1014.7
20260504213249 77 301 3.0 10.0 0.00 0.00 0.00 43 1014.6
20260504212746 79 263 3.0 7.0 0.00 0.00 0.00 39 1014.9
20260504212243 81 287 0.0 0.0 0.00 0.00 0.00 39 1014.9
20260504211741 82 266 0.0 0.0 0.00 0.00 0.00 40 1014.7
20260504211236 80 257 0.0 0.0 0.00 0.00 0.00 40 1014.8
20260504210734 79 221 0.0 10.0 0.00 0.00 0.00 42 1014.9
20260504210231 80 305 0.0 7.0 0.00 0.00 0.00 37 1014.8
20260504205728 79 286 3.0 7.0 0.00 0.00 0.00 37 1014.9
20260504205226 80 220 0.0 0.0 0.00 0.00 0.00 37 1015.0
20260504204724 80 220 0.0 0.0 0.00 0.00 0.00 35 1014.9
20260504204222 81 252 0.0 0.0 0.00 0.00 0.00 34 1014.8
20260504203721 80 253 0.0 0.0 0.00 0.00 0.00 34 1015.0
20260504203218 79 129 3.0 5.0 0.00 0.00 0.00 35 1015.0
20260504202718 78 288 4.0 10.0 0.00 0.00 0.00 36 1015.2
20260504202215 80 260 0.0 0.0 0.00 0.00 0.00 34 1015.0
20260504201712 81 176 0.0 0.0 0.00 0.00 0.00 32 1015.0
20260504201209 80 166 0.0 0.0 0.00 0.00 0.00 33 1015.2
20260504200707 79 133 0.0 3.0 0.00 0.00 0.00 36 1015.2
20260504200203 81 229 0.0 0.0 0.00 0.00 0.00 34 1015.2
20260504195659 80 160 0.0 0.0 0.00 0.00 0.00 33 1015.2
20260504195155 79 164 0.0 3.0 0.00 0.00 0.00 34 1015.2
20260504194653 81 254 0.0 0.0 0.00 0.00 0.00 34 1015.4
20260504194148 81 168 0.0 0.0 0.00 0.00 0.00 34 1015.2
20260504193645 79 219 0.0 0.0 0.00 0.00 0.00 36 1015.4
20260504193143 79 274 0.0 3.0 0.00 0.00 0.00 37 1015.4
20260504192641 79 211 0.0 3.0 0.00 0.00 0.00 37 1015.4
20260504192139 79 193 0.0 0.0 0.00 0.00 0.00 39 1015.4
20260504191637 79 258 0.0 0.0 0.00 0.00 0.00 37 1015.4
20260504191133 78 244 0.0 0.0 0.00 0.00 0.00 38 1015.6
20260504190629 78 202 0.0 0.0 0.00 0.00 0.00 38 1015.6
20260504190126 78 190 0.0 0.0 0.00 0.00 0.00 39 1015.3
20260504185622 77 226 0.0 5.0 0.00 0.00 0.00 42 1015.5
20260504185119 76 306 1.0 5.0 0.00 0.00 0.00 41 1015.6
20260504184614 78 242 0.0 5.0 0.00 0.00 0.00 39 1015.5
20260504184110 78 123 0.0 3.0 0.00 0.00 0.00 41 1015.5
20260504183607 78 234 0.0 5.0 0.00 0.00 0.00 40 1015.5
20260504183105 78 172 0.0 0.0 0.00 0.00 0.00 41 1015.7
20260504182602 79 210 0.0 0.0 0.00 0.00 0.00 39 1015.6
20260504182059 79 201 0.0 0.0 0.00 0.00 0.00 41 1015.7
20260504181556 77 126 0.0 3.0 0.00 0.00 0.00 42 1015.8
20260504181054 76 156 0.0 3.0 0.00 0.00 0.00 43 1015.8
20260504180553 77 150 0.0 0.0 0.00 0.00 0.00 41 1015.5
20260504180052 78 210 0.0 0.0 0.00 0.00 0.00 41 1015.9
20260504175548 75 122 0.0 3.0 0.00 0.00 0.00 45 1015.6
20260504175045 76 137 1.0 5.0 0.00 0.00 0.00 42 1015.6
20260504174543 77 131 0.0 0.0 0.00 0.00 0.00 44 1015.6
20260504174040 76 264 0.0 0.0 0.00 0.00 0.00 44 1015.7
20260504173537 75 214 0.0 5.0 0.00 0.00 0.00 47 1015.8
20260504173034 73 142 1.0 5.0 0.00 0.00 0.00 47 1015.6
20260504172530 75 133 0.0 0.0 0.00 0.00 0.00 46 1015.6
20260504172027 76 157 0.0 0.0 0.00 0.00 0.00 45 1015.6
20260504171524 75 258 0.0 0.0 0.00 0.00 0.00 45 1015.8
20260504171021 76 169 0.0 0.0 0.00 0.00 0.00 45 1015.6
20260504170516 75 130 0.0 0.0 0.00 0.00 0.00 45 1015.6
20260504160437 68 162 0.0 0.0 0.00 0.00 0.00 57 1015.5
20260504150900 57 171 0.0 0.0 0.00 0.00 0.00 73 1015.2
20260504150357 57 124 0.0 0.0 0.00 0.00 0.00 74 1015.3
20260504141327 53 188 0.0 0.0 0.00 0.00 0.00 81 1014.8
20260504140823 53 158 0.0 0.0 0.00 0.00 0.00 81 1015.0
20260504140319 53 154 0.0 0.0 0.00 0.00 0.00 82 1014.9